Flag for U.S.A. Weather past 2 weeks in Chinle, Arizona, U.S.A.

Now
36 °F

Clear.


Feels Like: 31 °F
Forecast: 31 / 54 °F
Wind: 6 mph from Southwest

Location: Window Rock Airport

Current Time: Dec 22, 2014 at 2:43:01 AM

Latest Report: Dec 22, 2014 at 1:53 AM


Visibility: 10 mi

Pressure: 29.88 "Hg

Humidity: 75%

Dew point: 29 °F

Location of ChinleLocation

Historic Weather in Chinle — Graph

°F

Chinle temperature yesterday

Maximum temperature yesterday: 49 °F (at 2:53 PM)
Minimum temperature yesterday: 28 °F (at 5:53 AM)
Average temperature yesterday: 37 °F

Past Weeks' High & Low Weather Summary

 TemperatureHumidityPressure
High49 °F (Dec 21, 2:53 PM)92% (Dec 17, 7:53 AM)30.35 "Hg (Dec 17, 7:53 AM)
Low16 °F (Dec 15, 6:53 AM)30% (Dec 15, 3:53 PM)29.88 "Hg (Dec 17, 3:53 AM)
Average33 °F74%30.07 "Hg
* Reported Dec 8 6:53 AM — Dec 22 1:53 AM, Chinle, Weather by CustomWeather, © 2014

Note: Actual official high and low records may vary slightly from our data, if they occured in-between our weather recording intervals... More about our weather records

Advertising

Chinle weather history for previous 24 hours

 ConditionsComfort  
Time TempWeatherWind HumidityBarometerVisibility
1:53 AM
Dec 22
36 °FClear.6 mph75%29.88 "Hg10 mi
12:53 AM36 °FClear.7 mph75%29.90 "Hg10 mi
11:53 PM
Dec 21
38 °FClear.6 mph73%29.90 "Hg10 mi
10:53 PM37 °FClear.3 mph73%29.95 "Hg10 mi
9:53 PM36 °FClear.6 mph73%29.96 "Hg10 mi
8:53 PM36 °FClear.3 mph75%29.96 "Hg10 mi
7:53 PM38 °FClear.6 mph70%29.97 "Hg10 mi
6:53 PM38 °FClear.5 mph70%29.99 "Hg10 mi
5:53 PM41 °FClear.5 mph65%29.94 "Hg10 mi
4:53 PM43 °FSunny.6 mph58%29.93 "Hg10 mi
3:53 PM48 °FSunny.9 mph50%29.90 "Hg10 mi
2:53 PM49 °FSunny.10 mph48%29.89 "Hg10 mi
1:53 PM47 °FSunny.13 mph48%29.90 "Hg10 mi
12:53 PM47 °FSunny.10 mph48%29.94 "Hg10 mi
11:53 AM46 °FSunny.10 mph48%29.95 "Hg10 mi
10:53 AM41 °FSunny.No wind58%30.01 "Hg10 mi
9:53 AM36 °FSunny.5 mph67%30.04 "Hg10 mi
8:53 AM32 °FSunny.No wind75%30.07 "Hg10 mi
7:53 AM29 °FSunny.No wind79%30.03 "Hg10 mi
6:53 AM28 °FClear.No wind78%30.03 "Hg10 mi
5:53 AM28 °FClear.No wind78%30.03 "Hg10 mi
4:53 AM32 °FOvercast.3 mph75%30.01 "Hg10 mi
3:53 AM33 °FPassing clouds.3 mph70%30.01 "Hg10 mi
2:53 AM33 °FClear.6 mph70%30.01 "Hg10 mi
Weather by CustomWeather, © 2014

See weather overviewHow to use our weather pages